Weather History for Youngstown, OH

Change the Weather History Date:

Sunday, October 23, 2011

  Actual Average Record
Temperature  
Mean Temperature 46 °F 49 °F  
Max Temperature 60 °F 58 °F 78 °F (1931)
Min Temperature 32 °F 40 °F 23 °F (1969)
Degree Days  
Heating Degree Days 19 16  
Month to date heating degree days 249 300  
Since 1 July heating degree days 370 483  
Cooling Degree Days 0 0  
Month to date cooling degree days 0 3  
Year to date cooling degree days 731 541  
Moisture  
Dew Point 36 °F    
Average Humidity 68    
Maximum Humidity 96    
Minimum Humidity 40    
Precipitation  
Precipitation 0.00 in 0.08 in 2.05 in (2007)
Month to date precipitation 2.20 2.07  
Year to date precipitation 44.44 32.04  
Snow  
Snow 0.00 in 0.00 in - ()
Month to date snowfall T 0.4  
Since 1 July snowfall T 0.4  
Since 1 September snowfall T 0.4  
Snow Depth 0.00 in    
Sea Level Pressure  
Sea Level Pressure 30.08 in    
Wind  
Wind Speed 6 mph (South)    
Max Wind Speed 14 mph    
Max Gust Speed 17 mph    
Visibility 10 miles    
Events Fog    
T = Trace of Precipitation, MM = Missing Value Source: NWS Daily Summary

Daily Weather History Graph

Daily Weather History Graph

Search for Another Location

Airport:

Trip Planner

Search our weather history database for the weather conditions in past years. The results will help you decide how hot, cold, wet, or windy it might be!

Date:

Astronomy

Oct. 23, 2011 Rise Set
Actual Time 7:43 AM EDT 6:30 PM EDT
Civil Twilight 7:14 AM EDT 6:58 PM EDT
Nautical Twilight 6:42 AM EDT 7:30 PM EDT
Astronomical Twilight 6:10 AM EDT 8:02 PM EDT
Moon 3:46 AM EDT (10/23) 4:22 PM EDT (10/23)
Length of Visible Light 11h 43m
Length of Day
10h 47m
Waning Crescent, 14% of the Moon is Illuminated
Oct 23
Waning Crescent
Oct 26
New
Nov 2
First Quarter
Nov 10
Full
Nov 18
Last Quarter

Hourly Weather History & Observations

Time (EDT) Temp. Windchill Dew Point Humidity Pressure Visibility Wind Dir Wind Speed Gust Speed Precip Events Conditions
12:51 AM 37.0 °F 34.5 °F 35.1 °F 93% 30.10 in 10.0 mi SE 3.5 mph - N/A   Partly Cloudy
1:51 AM 35.1 °F 32.2 °F 34.0 °F 96% 30.10 in 10.0 mi SE 3.5 mph - N/A   Clear
2:51 AM 35.1 °F 32.2 °F 33.1 °F 92% 30.09 in 9.0 mi SE 3.5 mph - N/A   Clear
3:51 AM 33.1 °F 28.7 °F 32.0 °F 96% 30.09 in 10.0 mi ESE 4.6 mph - N/A   Clear
4:51 AM 33.1 °F 28.7 °F 32.0 °F 96% 30.08 in 10.0 mi SE 4.6 mph - N/A   Clear
5:51 AM 32.0 °F 26.4 °F 30.0 °F 92% 30.10 in 10.0 mi SE 5.8 mph - N/A   Clear
6:51 AM 33.8 °F 28.6 °F 32.0 °F 93% 30.08 in 8.0 mi SSE 5.8 mph - N/A   Clear
7:51 AM 32.0 °F 27.5 °F 30.9 °F 96% 30.12 in 7.0 mi SSE 4.6 mph - N/A Fog Shallow Fog
8:51 AM 41.0 °F 38.0 °F 37.0 °F 86% 30.12 in 10.0 mi South 4.6 mph - N/A   Scattered Clouds
9:51 AM 46.0 °F 43.1 °F 37.9 °F 73% 30.13 in 10.0 mi South 5.8 mph - N/A   Scattered Clouds
10:51 AM 51.1 °F - 37.0 °F 59% 30.12 in 10.0 mi SSW 8.1 mph - N/A   Scattered Clouds
11:51 AM 55.9 °F - 37.9 °F 51% 30.11 in 10.0 mi SW 8.1 mph - N/A   Mostly Cloudy
12:51 PM 57.9 °F - 37.9 °F 47% 30.09 in 10.0 mi Variable 6.9 mph - N/A   Overcast
1:51 PM 60.1 °F - 37.0 °F 42% 30.07 in 10.0 mi South 11.5 mph - N/A   Mostly Cloudy
2:51 PM 59.0 °F - 36.0 °F 42% 30.05 in 10.0 mi SW 9.2 mph - N/A   Mostly Cloudy
3:51 PM 60.1 °F - 37.0 °F 42% 30.05 in 10.0 mi SW 5.8 mph 16.1 mph N/A   Mostly Cloudy
4:51 PM 59.0 °F - 37.0 °F 44% 30.04 in 10.0 mi SSW 4.6 mph - N/A   Mostly Cloudy
5:51 PM 57.9 °F - 37.0 °F 46% 30.04 in 10.0 mi South 3.5 mph - N/A   Mostly Cloudy
6:51 PM 55.0 °F - 37.0 °F 51% 30.04 in 10.0 mi South 4.6 mph - N/A   Mostly Cloudy
7:51 PM 55.0 °F - 37.9 °F 53% 30.05 in 10.0 mi SSE 5.8 mph - N/A   Overcast
8:51 PM 54.0 °F - 37.0 °F 53% 30.04 in 10.0 mi South 5.8 mph - N/A   Overcast
9:51 PM 54.0 °F - 37.9 °F 55% 30.05 in 10.0 mi South 6.9 mph - N/A   Overcast
10:51 PM 52.0 °F - 37.9 °F 59% 30.04 in 10.0 mi SSW 4.6 mph - N/A   Mostly Cloudy
11:51 PM 53.1 °F - 37.9 °F 57% 30.03 in 10.0 mi South 5.8 mph - N/A   Mostly Cloudy